STARLINK-3181, 51461

Orbit data source: Space-Track

STARLINK-3181, 51461 is a payload satellite owned by SpaceX/Seattle (US) in LEO that was launched on Thu, 03 Feb 2022 UTC via an FALCON 9 launch vehicle from the Air Force Eastern Test Range (AFETR). Payload-class satellites include a variety of spacecraft equipped with specific instruments for various scientific and technological missions. These include communications satellites like Starlink; space stations such as the ISS; scientific satellites like the Hubble; Earth observation satellites from companies like Planet Labs, Umbra, and HawkEye 360; GPS; miniature CubeSats for education and research; and military/defense satellites.

Loading next visibility...
Identifier
51461, 2022-010F
Orbit
LEO
Country
Flag of USUS
Related business
Manufacturer
SpaceX/Seattle
Mission
Operational Commercial Communications
Bus & Motor
STARLINK, Unknown motor
Mass
297 kg wet, ~275 kg dry
Launch date (UTC)
2022-02-03 (4 years ago)
Launch vehicle
FALCON 9
Launch site
Air Force Eastern Test Range (AFETR)
Object type
Payload
Rocket body
Debris
Shape & HBR
Box + 1 Pan, 10.1 m
Radar Cross Section
13.562 m², Large (>1 m²)

Expand to show TLE details & history
Last TLE update: 2 days ago

TLE from 2 days ago
0 STARLINK-3181
1 51461U 22010F   26171.30951751 -.00000287  00000-0  29592-7 0  9992
2 51461  53.1588 178.3282 0001185  82.7052 277.4074 15.08830796242319
Epoch: 2026-06-20T07:25Z
TLE epoch observation values (Epoch: 2026-06-20T07:25:42.312Z)
Latitude
-0.00005°
Longitude
158.37588°
Altitude
540.557 km
Speed
7.593 km/s
True Right ascension
11h 53m 18s
True Declination
0° 00' 00"
Sunlit
Object was in daylight at epoch
Visualization orbit readout
Latitude
Unknown
Longitude
Unknown
Altitude
Unknown
Speed
Unknown
Apparent Right ascension
Unknown
Apparent Declination
Unknown
Sunlit
N/A
Visualization observer readout
Local Sidereal Time
21:49:13
Azimuth
Unknown
Elevation
Unknown
Doppler factor
Unknown
Orbital elements
Apogee altitude
540.846 km
Perigee altitude
539.206 km
Semi-major axis
6,918.163 km
Eccentricity
0.00012
Inclination
53.1588°
RAAN
178.3282°
Arg. of periapsis
82.7052°
True anomaly
277.39393°
Mean anomaly
277.4074°
Eccentric anomaly
277.40067°
Mean motion
3.77187 °/min
Orbital period
95.44 mins
BSTAR
2.9592e-8
Loading maneuver chart data...
Computing Atmospheric mass density...

Documentation

Showing up to 5 results
|